Showing default

NETSAT-3, 46505

Orbit data source: Space-Track

NETSAT-3, 46505 is a payload satellite owned by ZfT (DE) in SSO that was launched on Mon, 28 Sep 2020 UTC via a SOYUZ-2-1B launch vehicle from the Plesetsk Missile And Space Complex (PKMTR). Payload-class satellites include a variety of spacecraft equipped with specific instruments for various scientific and technological missions. These include communications satellites like Starlink; space stations such as the ISS; scientific satellites like the Hubble; Earth observation satellites from companies like Planet Labs, Umbra, and HawkEye 360; GPS; miniature CubeSats for education and research; and military/defense satellites.

Loading next visibility...
Identifier
46505, 2020-068V
Orbit
SSO
Last TLE update
15 hours ago
Origin
Manufacturer
ZfT
Mission
Operational Commercial Technology
Bus & Motor
CUBESAT 3U, Unknown motor
Mass
4 kg wet, 4 kg dry
Launch date (UTC)
2020-09-28 (5 years ago)
Launch vehicle
SOYUZ-2-1B
Launch site
Plesetsk Missile And Space Complex (PKMTR)
Object type
Payload
Rocket body
Debris
Shape & HBR
Box, Unknown HBR
Radar Cross Section
0.035 m², Small (<0.1 m²)

Expand to show TLE details & history

TLE from 15 hours ago
0 NETSAT-3
1 46505U 20068V   25109.39884270  .00019150  00000-0  71571-3 0  9994
2 46505  97.8431  83.4673 0008916  47.8493 312.3501 15.27368660250695
Epoch: 2025-04-19T09:34Z
Definitive object data (Epoch: 2025-04-19T09:34:20.009Z)
Latitude
-0°
Longitude
92.14133°
Altitude
482.65 km
Speed
7.626 km/s
True Right ascension
05h 33m 52s
True Declination
0° 00' 00"
Sunlit
Object was in daylight at TLE epoch
Visualization TLE readout
Latitude
-63.99295°
Longitude
-103.49937°
Altitude
513.855 km
Speed
7.602 km/s
Apparent Right ascension
18h 29m 29s
Apparent Declination
-54° 31' 02"
Sunlit
Object is in full shadow
Visualization observer readout
Local Sidereal Time
07:40:31
Azimuth
146.732° SSE
Elevation
-71.172°
Doppler factor
1
Orbital elements
Apogee altitude
486.773 km
Perigee altitude
474.542 km
Semi-major axis
6,858.794 km
Eccentricity
0.0008916
Inclination
97.8431°
RAAN
83.4673°
Arg. of periapsis
47.8493°
True anomaly
312.27454°
Mean anomaly
312.3501°
Eccentric anomaly
312.31232°
Mean motion
3.82095 °/min
BSTAR
0.00071571
Orbital period
94.22 mins
Loading maneuver chart data...
Loading SW <> Apogee altitude chart data...
Loading historical data...
Loading historical data...
Loading historical data...
Loading historical data...
Loading historical data...
Loading historical data...
Loading historical data...

NETSAT-3 Visibility forecast

Observer location: undefined°, undefined°

Span
Click to sort rows by Start time (UTC) header in descending order
Start Az.
Max El. time (UTC)
Max El. Az.
Max El.
End time (UTC)
End Az.
6 mins2025-04-20 11:17:31.427Z3.66° NNE2025-04-20 11:20:31.427Z246.753° WSW40.589°2025-04-20 11:23:31.427Z203.284° SW
4 mins2025-04-20 21:53:31.427Z125.407° SE2025-04-20 21:54:31.427Z93.492° ESE32.98°2025-04-20 21:57:31.427Z6.275° NNE
|